Track FLOCK 4S 25 now! 10-day predictions FLOCK 4S 25 is classified as:
1 47542U 21006EC 22135.93716131 .00018817 00000-0 99476-3 0 9998 2 47542 97.4405 195.4846 0011258 39.5807 320.6245 15.15467350 71411